Regional Weather Roundup
Issued by NWS

Home | Current Version | Previous Version | Text Only | Print | Product List | Glossary Off
Versions: 1 2 3 4 5 6 7 8 9 10 11 12 13 14 15 16 17 18 19 20 21 22 23 24 25 26 27 28 29 30 31 32 33 34 35 36 37 38 39 40 41 42 43 44 45 46 47 48 49 50

000
ASUS45 KBOU 111110
RWRCO

WEATHER ROUNDUP FOR COLORADO
NATIONAL WEATHER SERVICE DENVER/BOULDER CO
500 AM MDT FRI JUL 11 2014

NOTE: "FAIR" INDICATES FEW OR NO CLOUDS BELOW 12000 FEET WITH NO
SIGNIFICANT WEATHER AND/OR OBSTRUCTIONS TO VISIBILITY.

COZ001>005-013-030-031-111200-
...NORTHWEST COLORADO...

CITY           SKY/WX    TMP DP  RH WIND       PRES   REMARKS
CRAIG          PTCLDY    56  54  93 E3        30.22R
HAYDEN         PTCLDY    57  52  82 SE7       30.23F
MEEKER         LGT RAIN  60  55  83 E9        30.24R
MOUNT WERNER   NOT AVBL
STEAMBOAT SPGS PTCLDY    56  53  92 NE6       30.26S
WALDEN         CLOUDY    52  48  87 SE3       30.34R
$$

COZ006>008-011-111200-
...WEST CENTRAL VALLEYS...

CITY           SKY/WX    TMP DP  RH WIND       PRES   REMARKS
GRAND JUNCTION LGT RAIN  67  60  78 SW8       30.08S
MONTROSE       PTCLDY    63  55  75 SE5       30.19R
EAGLE          MOCLDY    61  59  94 CALM      30.29R
RIFLE          RAIN      62  59  90 E12       30.19R
DELTA          PTCLDY    68  55  62 N8        30.14R
NUCLA          PTCLDY    64  50  59 E7        30.21R
$$

COZ017>023-064>068-111200-
...SOUTHWEST COLORADO...

CITY           SKY/WX    TMP DP  RH WIND       PRES   REMARKS
DURANGO        PTCLDY    56  52  86 CALM      30.23R
CORTEZ         PTCLDY    64  53  67 CALM      30.17R
PAGOSA SPRINGS PTCLDY    59  48  68 CALM      30.31S
TELLURIDE      NOT AVBL
WOLF CREEK PAS NOT AVBL
$$

COZ009-010-012-014-032>034-037-058>063-111200-
...CENTRAL COLORADO...

CITY           SKY/WX    TMP DP  RH WIND       PRES   REMARKS
ASPEN          PTCLDY    52  50  93 CALM      30.32R
BUENA VISTA    PTCLDY    56  47  73 CALM      30.33R
COPPER MTN     MOCLDY    46  41  81 S9        30.62S
BERTHOUD PASS  MOCLDY    41  28  60 W8        30.66S
COTTONWOOD PAS PTCLDY    59  41  51 W3        30.45S
GUNNISON       PTCLDY    52  45  76 N3        30.35R
KREMMLING      CLOUDY    55  52  88 CALM      30.31F
LEADVILLE      PTCLDY    46  44  93 N5        30.46S
MONARCH PASS   PTCLDY    50  37  62 NW9       30.71S
SALIDA         PTCLDY    59  48  66 W7        30.37S
SUNLIGHT       PTCLDY    50  48  93 W3        30.54S
WILKERSON PASS PTCLDY    52  37  58 CALM      30.59R
$$

COZ069>075-111200-
...SAN LUIS VALLEY/SANGRE DE CRISTO MOUNTAINS...

CITY           SKY/WX    TMP DP  RH WIND       PRES   REMARKS
ALAMOSA        PTCLDY    56  50  80 E7        30.28R
LA VETA PASS   PTCLDY    52  45  76 W9        30.46R
SAGUACHE       NOT AVBL
$$

COZ035-036-038>040-111200-
...NORTHERN COLORADO FRONT RANGE...

CITY           SKY/WX    TMP DP  RH WIND       PRES   REMARKS
DENVER INTL AP MOCLDY    65  56  72 N5        30.13S
DMNS CITY PARK   N/A     65  57  74 E1        30.13R
AURORA         MOCLDY    64  56  77 W2        30.16R
FRONT RANGE AP NOT AVBL
ERIE MUNI ARPT MOCLDY    64  57  79 CALM      30.13R
BOULDER MUN AP MOCLDY    66  55  68 CALM      30.13R
CENTENNIAL     MOCLDY    64  54  69 W5        30.17R
BROOMFIELD     MOCLDY    64  55  72 CALM      30.16R
FORT COLLINS   MOCLDY    64  55  72 S3        30.12R
LONGMONT       MOCLDY    65  59  81 CALM      30.13R
$$

COZ041-046-047-076>085-087-088-111200-
...PIKES PEAK/PALMER DIVIDE AND SOUTHERN FOOTHILLS...

CITY           SKY/WX    TMP DP  RH WIND       PRES   REMARKS
COLO. SPRINGS  PTCLDY    68  52  56 N24G31    30.14R
A. F. ACADEMY  PTCLDY    63  52  67 N13       30.19R
ELLICOTT       NOT AVBL
FALCON         PTCLDY    64  51  62 N15G23    30.20R
FORT CARSON    PTCLDY    70  52  53 N18       30.10R
LIMON          PTCLDY    62  57  83 NW12      30.11R
MONUMENT HILL  PTCLDY    55  50  82 W8        30.23S
TRINIDAD       CLEAR     68  49  50 W7        30.10R
$$

COZ042>045-048>051-090-091-111200-
...NORTHEAST COLORADO...

CITY           SKY/WX    TMP DP  RH WIND       PRES   REMARKS
GREELEY ARPT   NOT AVBL
AKRON          CLOUDY    64  61  90 NE13      30.04R
BURLINGTON     CLEAR     69  52  54 W7        30.00R
WRAY           CLOUDY    69  69 100 E8        29.98R
STERLING       CLOUDY    68  63  83 NE7       30.02R
HOLYOKE        CLOUDY    68  63  83 NE8       30.03R
FORT MORGAN    CLOUDY    65  57  76 NE7       30.07R
$$

COZ086-089-092>099-111200-
...SOUTHEAST COLORADO...

CITY           SKY/WX    TMP DP  RH WIND       PRES   REMARKS
PUEBLO         CLEAR     72  56  57 VRB7      30.03R
LA JUNTA       CLEAR     76  50  40 SW7       29.97R
LAMAR          CLEAR     76  48  37 S17       29.94S
SPRINGFIELD      N/A     70  48  45 S17       30.04S
$$


USA.gov is the U.S. government's official web portal to all federal, state and local government web resources and services.